• In Portugal
  • List of Countries
  • For 7 days
  • Water Temperature
  • Satellite Maps
  • Weather Map
  • Weather Widgets
  • user-avatar
    Login

    Hourly Weather Jutiapa

    Today, 13 December, Wednesday

    Time Temperature Precipitation Wind Pressure Humidity
    00:00 +14°C° 0 mm 3 mps 674 mmHg 82%
    01:00 +14°C° 0 mm 3 mps 674 mmHg 83%
    02:00 +14°C° 0 mm 3 mps 673 mmHg 83%
    03:00 +13°C° 0 mm 3 mps 673 mmHg 83%
    04:00 +13°C° 0 mm 3 mps 673 mmHg 84%
    05:00 +13°C° 0 mm 3 mps 673 mmHg 84%
    06:00 +13°C° 0 mm 3 mps 673 mmHg 85%
    07:00 +16°C° 0 mm 3 mps 674 mmHg 77%
    08:00 +18°C° 0 mm 3 mps 675 mmHg 69%
    09:00 +20°C° 0 mm 4 mps 676 mmHg 61%
    10:00 +21°C° 0 mm 4 mps 676 mmHg 56%
    11:00 +24°C° 0 mm 3 mps 676 mmHg 50%
    12:00 +25°C° 0 mm 3 mps 676 mmHg 45%
    13:00 +25°C° 0 mm 3 mps 675 mmHg 45%
    14:00 +25°C° 0 mm 3 mps 675 mmHg 46%
    15:00 +25°C° 0 mm 3 mps 674 mmHg 46%
    16:00 +22°C° 0 mm 3 mps 674 mmHg 55%
    17:00 +20°C° 0 mm 2 mps 673 mmHg 64%
    18:00 +18°C° 0 mm 2 mps 673 mmHg 72%
    19:00 +17°C° 0 mm 2 mps 673 mmHg 76%
    20:00 +16°C° 0 mm 2 mps 673 mmHg 79%
    21:00 +15°C° 0 mm 2 mps 673 mmHg 83%
    22:00 +15°C° 0 mm 2 mps 673 mmHg 84%
    23:00 +15°C° 0 mm 2 mps 673 mmHg 86%

    Tomorrow, 14 December, Thursday

    Time Temperature Precipitation Wind Pressure Humidity
    00:00 +14°C° 0 mm 2 mps 673 mmHg 87%
    01:00 +14°C° 0 mm 2 mps 673 mmHg 88%
    02:00 +14°C° 0 mm 2 mps 672 mmHg 88%
    03:00 +14°C° 0 mm 2 mps 672 mmHg 89%
    04:00 +13°C° 0 mm 2 mps 672 mmHg 88%
    05:00 +13°C° 0 mm 2 mps 671 mmHg 87%
    06:00 +13°C° 0 mm 2 mps 671 mmHg 87%
    07:00 +16°C° 0 mm 2 mps 672 mmHg 75%
    08:00 +20°C° 0 mm 1 mps 674 mmHg 64%
    09:00 +23°C° 0 mm 1 mps 675 mmHg 52%
    10:00 +25°C° 0 mm 1 mps 675 mmHg 45%
    11:00 +28°C° 0 mm 1 mps 675 mmHg 39%
    12:00 +30°C° 0 mm 1 mps 675 mmHg 32%
    13:00 +30°C° 0 mm 1 mps 674 mmHg 33%
    14:00 +30°C° 0 mm 2 mps 673 mmHg 34%
    15:00 +29°C° 0 mm 2 mps 673 mmHg 35%
    16:00 +26°C° 0 mm 1 mps 672 mmHg 45%
    17:00 +24°C° 0 mm 1 mps 672 mmHg 56%
    18:00 +21°C° 0 mm 1 mps 672 mmHg 66%
    19:00 +20°C° 0 mm 1 mps 672 mmHg 71%
    20:00 +19°C° 0 mm 1 mps 672 mmHg 75%
    21:00 +18°C° 0 mm 1 mps 673 mmHg 80%
    22:00 +18°C° 0 mm 1 mps 673 mmHg 81%
    23:00 +18°C° 0 mm 1 mps 672 mmHg 82%

    Day after tomorrow, 15 December, Friday

    Time Temperature Precipitation Wind Pressure Humidity
    00:00 +16°C° 0 mm 1 mps 672 mmHg 83%
    01:00 +16°C° 0 mm 1 mps 672 mmHg 84%
    02:00 +16°C° 0 mm 1 mps 672 mmHg 84%
    03:00 +16°C° 0 mm 1 mps 671 mmHg 85%
    04:00 +16°C° 0 mm 1 mps 671 mmHg 85%
    05:00 +16°C° 0 mm 1 mps 672 mmHg 85%
    06:00 +16°C° 0 mm 1 mps 672 mmHg 85%
    07:00 +20°C° 0 mm 1 mps 673 mmHg 76%
    08:00 +22°C° 0 mm 1 mps 674 mmHg 67%
    09:00 +25°C° 0 mm 1 mps 675 mmHg 57%
    10:00 +27°C° 0 mm 1 mps 675 mmHg 52%
    11:00 +28°C° 0 mm 1 mps 675 mmHg 46%
    12:00 +30°C° 0 mm 1 mps 675 mmHg 41%
    13:00 +30°C° 0 mm 1 mps 674 mmHg 43%
    14:00 +29°C° 0 mm 2 mps 673 mmHg 45%
    15:00 +29°C° 0 mm 2 mps 672 mmHg 47%
    16:00 +26°C° 0 mm 2 mps 672 mmHg 56%
    17:00 +24°C° 0 mm 1 mps 672 mmHg 65%
    18:00 +22°C° 0 mm 1 mps 672 mmHg 74%
    19:00 +21°C° 0 mm 1 mps 672 mmHg 78%
    20:00 +21°C° 0 mm 1 mps 673 mmHg 82%
    21:00 +19°C° 0 mm 2 mps 673 mmHg 86%
    22:00 +19°C° 0 mm 2 mps 673 mmHg 86%
    23:00 +19°C° 0 mm 2 mps 673 mmHg 86%

    16 December, Saturday

    Time Temperature Precipitation Wind Pressure Humidity
    00:00 +19°C° 0 mm 2 mps 673 mmHg 86%
    01:00 +19°C° 0 mm 2 mps 673 mmHg 87%
    02:00 +18°C° 0 mm 2 mps 672 mmHg 88%
    03:00 +18°C° 0 mm 2 mps 672 mmHg 88%
    04:00 +18°C° 0 mm 2 mps 672 mmHg 88%
    05:00 +18°C° 0 mm 2 mps 672 mmHg 88%
    06:00 +18°C° 0 mm 2 mps 672 mmHg 88%
    07:00 +20°C° 0 mm 2 mps 673 mmHg 80%
    08:00 +21°C° 0 mm 3 mps 674 mmHg 72%
    09:00 +24°C° 0 mm 3 mps 675 mmHg 64%
    10:00 +26°C° 0 mm 3 mps 675 mmHg 58%
    11:00 +27°C° 0 mm 3 mps 675 mmHg 51%
    12:00 +29°C° 0 mm 3 mps 675 mmHg 44%
    13:00 +29°C° 0 mm 3 mps 674 mmHg 45%
    14:00 +28°C° 0 mm 3 mps 673 mmHg 46%
    15:00 +28°C° 0 mm 2 mps 672 mmHg 48%
    16:00 +26°C° 0.1 mm 2 mps 672 mmHg 57%
    17:00 +24°C° 0.1 mm 2 mps 672 mmHg 66%
    18:00 +22°C° 0.1 mm 1 mps 672 mmHg 76%
    19:00 +21°C° 0.1 mm 1 mps 672 mmHg 79%
    20:00 +21°C° 0.1 mm 1 mps 673 mmHg 83%
    21:00 +19°C° 0.1 mm 2 mps 673 mmHg 86%
    22:00 +19°C° 0 mm 2 mps 673 mmHg 87%
    23:00 +19°C° 0 mm 2 mps 673 mmHg 88%

    17 December, Sunday

    Time Temperature Precipitation Wind Pressure Humidity
    00:00 +19°C° 0 mm 2 mps 673 mmHg 88%
    01:00 +18°C° 0 mm 2 mps 673 mmHg 89%
    02:00 +18°C° 0 mm 2 mps 672 mmHg 89%
    03:00 +18°C° 0 mm 2 mps 672 mmHg 90%
    04:00 +18°C° 0 mm 2 mps 672 mmHg 90%
    05:00 +17°C° 0 mm 2 mps 672 mmHg 90%
    06:00 +17°C° 0 mm 2 mps 673 mmHg 91%
    07:00 +19°C° 0 mm 2 mps 673 mmHg 82%
    08:00 +21°C° 0 mm 2 mps 674 mmHg 73%
    09:00 +24°C° 0 mm 2 mps 675 mmHg 63%
    10:00 +26°C° 0 mm 2 mps 675 mmHg 54%
    11:00 +28°C° 0 mm 2 mps 675 mmHg 45%
    12:00 +30°C° 0 mm 2 mps 674 mmHg 36%
    13:00 +30°C° 0 mm 2 mps 674 mmHg 37%
    14:00 +30°C° 0 mm 2 mps 673 mmHg 38%
    15:00 +30°C° 0 mm 2 mps 672 mmHg 39%
    16:00 +27°C° 0 mm 2 mps 672 mmHg 51%
    17:00 +25°C° 0 mm 2 mps 672 mmHg 62%
    18:00 +22°C° 0 mm 1 mps 672 mmHg 73%
    19:00 +22°C° 0 mm 1 mps 672 mmHg 77%
    20:00 +21°C° 0 mm 1 mps 672 mmHg 82%
    21:00 +19°C° 0 mm 2 mps 673 mmHg 86%
    22:00 +19°C° 0 mm 2 mps 673 mmHg 87%
    23:00 +19°C° 0 mm 2 mps 672 mmHg 89%

    18 December, Monday

    Time Temperature Precipitation Wind Pressure Humidity
    00:00 +19°C° 0 mm 2 mps 672 mmHg 90%
    01:00 +18°C° 0 mm 2 mps 672 mmHg 90%
    02:00 +18°C° 0 mm 2 mps 672 mmHg 91%
    03:00 +18°C° 0 mm 2 mps 671 mmHg 91%
    04:00 +18°C° 0 mm 2 mps 672 mmHg 91%
    05:00 +18°C° 0 mm 2 mps 672 mmHg 91%
    06:00 +18°C° 0 mm 2 mps 672 mmHg 91%
    07:00 +20°C° 0 mm 2 mps 673 mmHg 82%
    08:00 +23°C° 0 mm 2 mps 674 mmHg 72%
    09:00 +25°C° 0 mm 2 mps 675 mmHg 63%
    10:00 +26°C° 0 mm 2 mps 675 mmHg 57%
    11:00 +28°C° 0 mm 3 mps 674 mmHg 51%
    12:00 +29°C° 0 mm 3 mps 674 mmHg 46%
    13:00 +29°C° 0 mm 3 mps 674 mmHg 47%
    14:00 +29°C° 0 mm 2 mps 673 mmHg 48%
    15:00 +29°C° 0 mm 2 mps 672 mmHg 50%
    16:00 +27°C° 0.1 mm 2 mps 672 mmHg 58%
    17:00 +25°C° 0.1 mm 2 mps 672 mmHg 67%
    18:00 +23°C° 0.1 mm 1 mps 672 mmHg 75%
    19:00 +22°C° 0 mm 1 mps 673 mmHg 79%
    20:00 +20°C° 0 mm 2 mps 673 mmHg 83%
    21:00 +19°C° 0 mm 2 mps 673 mmHg 87%
    22:00 +19°C° 0 mm 2 mps 673 mmHg 88%
    23:00 +19°C° 0 mm 2 mps 673 mmHg 89%
    Show more